Hovedside
METAR-TAF:

METAR-TAF

Lufthavner :

Sveg, Sverige

Sveg lufthavn

breddegrad: 62-02-52N, lengdegrad: 014-25-22E, høyde over havet: 359 m

Gjeldene værobservasjon

Denne rapporten ble laget for 43 minutter siden, klokken 13:50 UTC
Vind 7 kt fra Øst
Temperatur -6°C
Luftfuktighet 93%
Trykk 1005 hPa
Sikt: 2500 m
lett snø

METAR: ESND 221350Z AUTO 08007KT 2500 -SN SCT002/// OVC008/// M06/M07 Q1005

Tid: 15:33 (14:33 UTC)


TAF: fraværende

Værobservasjoner og værvarsel for over 4000 flyplasser (METAR- og TAF-rapporter).

Tilgjengelige stasjoner er representert av de røde og gule prikkene på kartet.

Hold musepekeren over prikken for å se navnet på stasjonen.

Klikk så for å se værobservasjoner og -varsler.

For å forandre kartet kan du klikke på den grønne knappen med svart kryss for å zoome inn, på den grønne knappen med strek for å zoome ut, eller på de grønne pilene for å se tilstøtende kart.


METAR-TAF: